Year,Month,Day,Hour,Minute,Value (Times are PST for temperature in C)
2017,07,05,00,00,14.60
2017,07,05,00,01,14.60
2017,07,05,00,02,14.60
2017,07,05,00,03,14.60
2017,07,05,00,04,14.60
2017,07,05,00,05,14.60
2017,07,05,00,06,14.60
2017,07,05,00,07,14.40
2017,07,05,00,08,14.20
2017,07,05,00,09,14.20
2017,07,05,00,10,14.20
2017,07,05,00,11,14.20
2017,07,05,00,12,14.20
2017,07,05,00,13,14.20
2017,07,05,00,14,14.20
2017,07,05,00,15,14.20
2017,07,05,00,16,14.20
2017,07,05,00,17,14.20
2017,07,05,00,18,14.30
2017,07,05,00,19,14.30
2017,07,05,00,20,14.30
2017,07,05,00,21,14.30
2017,07,05,00,22,14.30
2017,07,05,00,23,14.30
2017,07,05,00,24,14.40
2017,07,05,00,25,14.40
2017,07,05,00,26,14.30
2017,07,05,00,27,14.30
2017,07,05,00,28,14.30
2017,07,05,00,29,14.20
2017,07,05,00,30,14.30
2017,07,05,00,31,14.30
2017,07,05,00,32,14.40
2017,07,05,00,33,14.40
2017,07,05,00,34,14.50
2017,07,05,00,35,14.50
2017,07,05,00,36,14.60
2017,07,05,00,37,14.60
2017,07,05,00,38,14.70
2017,07,05,00,39,14.70
2017,07,05,00,40,14.70
2017,07,05,00,41,14.70
2017,07,05,00,42,14.70
2017,07,05,00,43,14.70
2017,07,05,00,44,14.70
2017,07,05,00,45,14.70
2017,07,05,00,46,14.60
2017,07,05,00,47,14.60
2017,07,05,00,48,14.60
2017,07,05,00,49,14.60
2017,07,05,00,50,14.60
2017,07,05,00,51,14.50
2017,07,05,00,52,14.50
2017,07,05,00,53,14.50
2017,07,05,00,54,14.60
2017,07,05,00,55,14.60
2017,07,05,00,56,14.70
2017,07,05,00,57,14.80
2017,07,05,00,58,14.80
2017,07,05,00,59,14.90
2017,07,05,01,00,15.00
2017,07,05,01,01,15.00
2017,07,05,01,02,15.10
2017,07,05,01,03,15.10
2017,07,05,01,04,15.20
2017,07,05,01,05,15.20
2017,07,05,01,06,15.20
2017,07,05,01,07,15.20
2017,07,05,01,08,15.20
2017,07,05,01,09,15.20
2017,07,05,01,10,15.20
2017,07,05,01,11,15.20
2017,07,05,01,12,15.20
2017,07,05,01,13,15.20
2017,07,05,01,14,15.20
2017,07,05,01,15,15.10
2017,07,05,01,16,15.10
2017,07,05,01,17,15.00
2017,07,05,01,18,15.00
2017,07,05,01,19,14.90
2017,07,05,01,20,14.80
2017,07,05,01,21,14.80
2017,07,05,01,22,14.70
2017,07,05,01,23,14.70
2017,07,05,01,24,14.60
2017,07,05,01,25,14.60
2017,07,05,01,26,14.60
2017,07,05,01,27,14.50
2017,07,05,01,28,14.40
2017,07,05,01,29,14.40
2017,07,05,01,30,14.30
2017,07,05,01,31,14.30
2017,07,05,01,32,14.30
2017,07,05,01,33,14.20
2017,07,05,01,34,14.20
2017,07,05,01,35,14.20
2017,07,05,01,36,14.10
2017,07,05,01,37,14.10
2017,07,05,01,38,14.10
2017,07,05,01,39,14.00
2017,07,05,01,40,14.00
2017,07,05,01,41,13.90
2017,07,05,01,42,13.90
2017,07,05,01,43,13.90
2017,07,05,01,44,13.90
2017,07,05,01,45,13.90
2017,07,05,01,46,13.90
2017,07,05,01,47,13.80
2017,07,05,01,48,13.80
2017,07,05,01,49,13.80
2017,07,05,01,50,13.80
2017,07,05,01,51,13.80
2017,07,05,01,52,13.80
2017,07,05,01,53,13.80
2017,07,05,01,54,13.80
2017,07,05,01,55,13.80
2017,07,05,01,56,13.70
2017,07,05,01,57,13.70
2017,07,05,01,58,13.70
2017,07,05,01,59,13.80
2017,07,05,02,00,13.80
2017,07,05,02,01,13.80
2017,07,05,02,02,13.80
2017,07,05,02,03,13.80
2017,07,05,02,04,13.80
2017,07,05,02,05,13.80
2017,07,05,02,06,13.80
2017,07,05,02,07,13.90
2017,07,05,02,08,14.00
2017,07,05,02,09,14.10
2017,07,05,02,10,14.10
2017,07,05,02,11,14.20
2017,07,05,02,12,14.20
2017,07,05,02,13,14.20
2017,07,05,02,14,14.20
2017,07,05,02,15,14.30
2017,07,05,02,16,14.30
2017,07,05,02,17,14.40
2017,07,05,02,18,14.40
2017,07,05,02,19,14.40
2017,07,05,02,20,14.40
2017,07,05,02,21,14.40
2017,07,05,02,22,14.30
2017,07,05,02,23,14.40
2017,07,05,02,24,14.30
2017,07,05,02,25,14.30
2017,07,05,02,26,14.20
2017,07,05,02,27,14.10
2017,07,05,02,28,14.00
2017,07,05,02,29,13.90
2017,07,05,02,30,13.80
2017,07,05,02,31,13.70
2017,07,05,02,32,13.60
2017,07,05,02,33,13.50
2017,07,05,02,34,13.40
2017,07,05,02,35,13.30
2017,07,05,02,36,13.20
2017,07,05,02,37,13.10
2017,07,05,02,38,13.00
2017,07,05,02,39,12.90
2017,07,05,02,40,12.90
2017,07,05,02,41,12.80
2017,07,05,02,42,12.70
2017,07,05,02,43,12.70
2017,07,05,02,44,12.70
2017,07,05,02,45,12.60
2017,07,05,02,46,12.60
2017,07,05,02,47,12.60
2017,07,05,02,48,12.50
2017,07,05,02,49,12.50
2017,07,05,02,50,12.50
2017,07,05,02,51,12.40
2017,07,05,02,52,12.40
2017,07,05,02,53,12.40
2017,07,05,02,54,12.40
2017,07,05,02,55,12.40
2017,07,05,02,56,12.30
2017,07,05,02,57,12.30
2017,07,05,02,58,12.30
2017,07,05,02,59,12.30
2017,07,05,03,00,12.30
2017,07,05,03,01,12.20
2017,07,05,03,02,12.20
2017,07,05,03,03,12.20
2017,07,05,03,04,12.20
2017,07,05,03,05,12.20
2017,07,05,03,06,12.20
2017,07,05,03,07,12.20
2017,07,05,03,08,12.20
2017,07,05,03,09,12.20
2017,07,05,03,10,12.10
2017,07,05,03,11,12.10
2017,07,05,03,12,12.10
2017,07,05,03,13,12.20
2017,07,05,03,14,12.20
2017,07,05,03,15,12.20
2017,07,05,03,16,12.20
2017,07,05,03,17,12.20
2017,07,05,03,18,12.20
2017,07,05,03,19,12.20
2017,07,05,03,20,12.20
2017,07,05,03,21,12.20
2017,07,05,03,22,12.10
2017,07,05,03,23,12.10
2017,07,05,03,24,12.10
2017,07,05,03,25,12.00
2017,07,05,03,26,12.00
2017,07,05,03,27,12.00
2017,07,05,03,28,12.00
2017,07,05,03,29,11.90
2017,07,05,03,30,11.90
2017,07,05,03,31,11.90
2017,07,05,03,32,11.90
2017,07,05,03,33,11.90
2017,07,05,03,34,11.80
2017,07,05,03,35,11.80
2017,07,05,03,36,11.80
2017,07,05,03,37,11.80
2017,07,05,03,38,11.80
2017,07,05,03,39,11.80
2017,07,05,03,40,11.80
2017,07,05,03,41,11.70
2017,07,05,03,42,11.70
2017,07,05,03,43,11.70
2017,07,05,03,44,11.70
2017,07,05,03,45,11.70
2017,07,05,03,46,11.70
2017,07,05,03,47,11.70
2017,07,05,03,48,11.70
2017,07,05,03,49,11.70
2017,07,05,03,50,11.70
2017,07,05,03,51,11.70
2017,07,05,03,52,11.70
2017,07,05,03,53,11.70
2017,07,05,03,54,11.60
2017,07,05,03,55,11.60
2017,07,05,03,56,11.60
2017,07,05,03,57,11.60
2017,07,05,03,58,11.60
2017,07,05,03,59,11.60
2017,07,05,04,00,11.60
2017,07,05,04,01,11.60
2017,07,05,04,02,11.60
2017,07,05,04,03,11.60
2017,07,05,04,04,11.50
2017,07,05,04,05,11.50
2017,07,05,04,06,11.50
2017,07,05,04,07,11.40
2017,07,05,04,08,11.40
2017,07,05,04,09,11.40
2017,07,05,04,10,11.40
2017,07,05,04,11,11.30
2017,07,05,04,12,11.30
2017,07,05,04,13,11.30
2017,07,05,04,14,11.30
2017,07,05,04,15,11.20
2017,07,05,04,16,11.20
2017,07,05,04,17,11.20
2017,07,05,04,18,11.20
2017,07,05,04,19,11.20
2017,07,05,04,20,11.10
2017,07,05,04,21,11.10
2017,07,05,04,22,11.10
2017,07,05,04,23,11.10
2017,07,05,04,24,11.10
2017,07,05,04,25,11.10
2017,07,05,04,26,11.10
2017,07,05,04,27,11.10
2017,07,05,04,28,11.10
2017,07,05,04,29,11.10
2017,07,05,04,30,11.10
2017,07,05,04,31,11.10
2017,07,05,04,32,11.10
2017,07,05,04,33,11.10
2017,07,05,04,34,11.10
2017,07,05,04,35,11.10
2017,07,05,04,36,11.10
2017,07,05,04,37,11.10
2017,07,05,04,38,11.10
2017,07,05,04,39,11.10
2017,07,05,04,40,11.10
2017,07,05,04,41,11.20
2017,07,05,04,42,11.20
2017,07,05,04,43,11.20
2017,07,05,04,44,11.20
2017,07,05,04,45,11.20
2017,07,05,04,46,11.20
2017,07,05,04,47,11.20
2017,07,05,04,48,11.20
2017,07,05,04,49,11.20
2017,07,05,04,50,11.20
2017,07,05,04,51,11.20
2017,07,05,04,52,11.10
2017,07,05,04,53,11.10
2017,07,05,04,54,11.10
2017,07,05,04,55,11.00
2017,07,05,04,56,11.00
2017,07,05,04,57,11.00
2017,07,05,04,58,10.90
2017,07,05,04,59,10.90
2017,07,05,05,00,10.90
2017,07,05,05,01,10.90
2017,07,05,05,02,10.80
2017,07,05,05,03,10.80
2017,07,05,05,04,10.80
2017,07,05,05,05,10.80
2017,07,05,05,06,10.80
2017,07,05,05,07,10.70
2017,07,05,05,08,10.70
2017,07,05,05,09,10.70
2017,07,05,05,10,10.70
2017,07,05,05,11,10.70
2017,07,05,05,12,10.70
2017,07,05,05,13,10.70
2017,07,05,05,14,10.70
2017,07,05,05,15,10.60
2017,07,05,05,16,10.60
2017,07,05,05,17,10.60
2017,07,05,05,18,10.60
2017,07,05,05,19,10.60
2017,07,05,05,20,10.60
2017,07,05,05,21,10.60
2017,07,05,05,22,10.60
2017,07,05,05,23,10.60
2017,07,05,05,24,10.60
2017,07,05,05,25,10.60
2017,07,05,05,26,10.60
2017,07,05,05,27,10.60
2017,07,05,05,28,10.60
2017,07,05,05,29,10.60
2017,07,05,05,30,10.60
2017,07,05,05,31,10.60
2017,07,05,05,32,10.60
2017,07,05,05,33,10.60
2017,07,05,05,34,10.60
2017,07,05,05,35,10.60
2017,07,05,05,36,10.60
2017,07,05,05,37,10.60
2017,07,05,05,38,10.60
2017,07,05,05,39,10.60
2017,07,05,05,40,10.60
2017,07,05,05,41,10.60
2017,07,05,05,42,10.60
2017,07,05,05,43,10.60
2017,07,05,05,44,10.60
2017,07,05,05,45,10.70
2017,07,05,05,46,10.70
2017,07,05,05,47,10.70
2017,07,05,05,48,10.70
2017,07,05,05,49,10.70
2017,07,05,05,50,10.80
2017,07,05,05,51,10.80
2017,07,05,05,52,10.80
2017,07,05,05,53,10.80
2017,07,05,05,54,10.80
2017,07,05,05,55,10.80
2017,07,05,05,56,10.90
2017,07,05,05,57,10.90
2017,07,05,05,58,10.90
2017,07,05,05,59,10.90
2017,07,05,06,00,10.90
2017,07,05,06,01,10.90
2017,07,05,06,02,10.90
2017,07,05,06,03,10.90
2017,07,05,06,04,10.90
2017,07,05,06,05,10.90
2017,07,05,06,06,10.90
2017,07,05,06,07,10.90
2017,07,05,06,08,10.90
2017,07,05,06,09,10.90
2017,07,05,06,10,10.90
2017,07,05,06,11,10.90
2017,07,05,06,12,10.90
2017,07,05,06,13,10.90
2017,07,05,06,14,11.00
2017,07,05,06,15,11.00
2017,07,05,06,16,11.00
2017,07,05,06,17,11.00
2017,07,05,06,18,11.10
2017,07,05,06,19,11.10
2017,07,05,06,20,11.20
2017,07,05,06,21,11.20
2017,07,05,06,22,11.30
2017,07,05,06,23,11.30
2017,07,05,06,24,11.40
2017,07,05,06,25,11.40
2017,07,05,06,26,11.50
2017,07,05,06,27,11.50
2017,07,05,06,28,11.60
2017,07,05,06,29,11.60
2017,07,05,06,30,11.70
2017,07,05,06,31,11.70
2017,07,05,06,32,11.70
2017,07,05,06,33,11.70
2017,07,05,06,34,11.70
2017,07,05,06,35,11.70
2017,07,05,06,36,11.70
2017,07,05,06,37,11.80
2017,07,05,06,38,11.80
2017,07,05,06,39,11.80
2017,07,05,06,40,11.90
2017,07,05,06,41,11.90
2017,07,05,06,42,12.00
2017,07,05,06,43,12.00
2017,07,05,06,44,12.10
2017,07,05,06,45,12.20
2017,07,05,06,46,12.20
2017,07,05,06,47,12.30
2017,07,05,06,48,12.40
2017,07,05,06,49,12.40
2017,07,05,06,50,12.50
2017,07,05,06,51,12.60
2017,07,05,06,52,12.70
2017,07,05,06,53,12.80
2017,07,05,06,54,12.80
2017,07,05,06,55,12.90
2017,07,05,06,56,13.00
2017,07,05,06,57,13.00
2017,07,05,06,58,13.10
2017,07,05,06,59,13.20
2017,07,05,07,00,13.30
2017,07,05,07,01,13.40
2017,07,05,07,02,13.40
2017,07,05,07,03,13.50
2017,07,05,07,04,13.60
2017,07,05,07,05,13.70
2017,07,05,07,06,13.80
2017,07,05,07,07,13.90
2017,07,05,07,08,14.00
2017,07,05,07,09,14.20
2017,07,05,07,10,14.30
2017,07,05,07,11,14.40
2017,07,05,07,12,14.60
2017,07,05,07,13,14.70
2017,07,05,07,14,14.80
2017,07,05,07,15,14.90
2017,07,05,07,16,15.00
2017,07,05,07,17,15.10
2017,07,05,07,18,15.20
2017,07,05,07,19,15.30
2017,07,05,07,20,15.40
2017,07,05,07,21,15.50
2017,07,05,07,22,15.60
2017,07,05,07,23,15.70
2017,07,05,07,24,15.80
2017,07,05,07,25,15.90
2017,07,05,07,26,16.00
2017,07,05,07,27,16.10
2017,07,05,07,28,16.10
2017,07,05,07,29,16.20
2017,07,05,07,30,16.20
2017,07,05,07,31,16.30
2017,07,05,07,32,16.30
2017,07,05,07,33,16.40
2017,07,05,07,34,16.40
2017,07,05,07,35,16.40
2017,07,05,07,36,16.40
2017,07,05,07,37,16.40
2017,07,05,07,38,16.40
2017,07,05,07,39,16.50
2017,07,05,07,40,16.50
2017,07,05,07,41,16.50
2017,07,05,07,42,16.50
2017,07,05,07,43,16.50
2017,07,05,07,44,16.60
2017,07,05,07,45,16.60
2017,07,05,07,46,16.60
2017,07,05,07,47,16.60
2017,07,05,07,48,16.60
2017,07,05,07,49,16.70
2017,07,05,07,50,16.70
2017,07,05,07,51,16.80
2017,07,05,07,52,16.80
2017,07,05,07,53,16.80
2017,07,05,07,54,16.90
2017,07,05,07,55,16.90
2017,07,05,07,56,17.00
2017,07,05,07,57,17.00
2017,07,05,07,58,17.10
2017,07,05,07,59,17.10
2017,07,05,08,00,17.10
2017,07,05,08,01,17.10
2017,07,05,08,02,17.10
2017,07,05,08,03,17.20
2017,07,05,08,04,17.20
2017,07,05,08,05,17.20
2017,07,05,08,06,17.20
2017,07,05,08,07,17.20
2017,07,05,08,08,17.20
2017,07,05,08,09,17.20
2017,07,05,08,10,17.20
2017,07,05,08,11,17.20
2017,07,05,08,12,17.10
2017,07,05,08,13,17.10
2017,07,05,08,14,17.10
2017,07,05,08,15,17.10
2017,07,05,08,16,17.10
2017,07,05,08,17,17.10
2017,07,05,08,18,17.10
2017,07,05,08,19,17.10
2017,07,05,08,20,17.00
2017,07,05,08,21,17.00
2017,07,05,08,22,17.00
2017,07,05,08,23,17.00
2017,07,05,08,24,17.00
2017,07,05,08,25,17.00
2017,07,05,08,26,17.10
2017,07,05,08,27,17.10
2017,07,05,08,28,17.10
2017,07,05,08,29,17.10
2017,07,05,08,30,17.10
2017,07,05,08,31,17.00
2017,07,05,08,32,17.00
2017,07,05,08,33,17.00
2017,07,05,08,34,17.00
2017,07,05,08,35,17.00
2017,07,05,08,36,17.10
2017,07,05,08,37,17.00
2017,07,05,08,38,17.00
2017,07,05,08,39,17.10
2017,07,05,08,40,17.10
2017,07,05,08,41,17.10
2017,07,05,08,42,17.20
2017,07,05,08,43,17.20
2017,07,05,08,44,17.10
2017,07,05,08,45,17.10
2017,07,05,08,46,17.10
2017,07,05,08,47,17.10
2017,07,05,08,48,17.20
2017,07,05,08,49,17.20
2017,07,05,08,50,17.30
2017,07,05,08,51,17.30
2017,07,05,08,52,17.40
2017,07,05,08,53,17.50
2017,07,05,08,54,17.50
2017,07,05,08,55,17.50
2017,07,05,08,56,17.40
2017,07,05,08,57,17.40
2017,07,05,08,58,17.40
2017,07,05,08,59,17.40
2017,07,05,09,00,17.40
2017,07,05,09,01,17.40
2017,07,05,09,02,17.50
2017,07,05,09,03,17.50
2017,07,05,09,04,17.50
2017,07,05,09,05,17.50
2017,07,05,09,06,17.40
2017,07,05,09,07,17.30
2017,07,05,09,08,17.30
2017,07,05,09,09,17.30
2017,07,05,09,10,17.20
2017,07,05,09,11,17.20
2017,07,05,09,12,17.10
2017,07,05,09,13,17.10
2017,07,05,09,14,17.10
2017,07,05,09,15,17.20
2017,07,05,09,16,17.20
2017,07,05,09,17,17.10
2017,07,05,09,18,17.20
2017,07,05,09,19,17.20
2017,07,05,09,20,17.20
2017,07,05,09,21,17.20
2017,07,05,09,22,17.20
2017,07,05,09,23,17.20
2017,07,05,09,24,17.30
2017,07,05,09,25,17.20
2017,07,05,09,26,17.30
2017,07,05,09,27,17.30
2017,07,05,09,28,17.30
2017,07,05,09,29,17.30
2017,07,05,09,30,17.30
2017,07,05,09,31,17.20
2017,07,05,09,32,17.20
2017,07,05,09,33,17.30
2017,07,05,09,34,17.30
2017,07,05,09,35,17.30
2017,07,05,09,36,17.20
2017,07,05,09,37,17.10
2017,07,05,09,38,17.10
2017,07,05,09,39,17.10
2017,07,05,09,40,17.10
2017,07,05,09,41,17.10
2017,07,05,09,42,17.10
2017,07,05,09,43,17.20
2017,07,05,09,44,17.30
2017,07,05,09,45,17.40
2017,07,05,09,46,17.50
2017,07,05,09,47,17.50
2017,07,05,09,48,17.50
2017,07,05,09,49,17.50
2017,07,05,09,50,17.50
2017,07,05,09,51,17.50
2017,07,05,09,52,17.50
2017,07,05,09,53,17.50
2017,07,05,09,54,17.50
2017,07,05,09,55,17.40
2017,07,05,09,56,17.30
2017,07,05,09,57,17.30
2017,07,05,09,58,17.30
2017,07,05,09,59,17.30
2017,07,05,10,00,17.30
2017,07,05,10,01,17.30
2017,07,05,10,02,17.30
2017,07,05,10,03,17.30
2017,07,05,10,04,17.30
2017,07,05,10,05,17.30
2017,07,05,10,06,17.30
2017,07,05,10,07,17.30
2017,07,05,10,08,17.40
2017,07,05,10,09,17.50
2017,07,05,10,10,17.50
2017,07,05,10,11,17.50
2017,07,05,10,12,17.50
2017,07,05,10,13,17.40
2017,07,05,10,14,17.40
2017,07,05,10,15,17.40
2017,07,05,10,16,17.40
2017,07,05,10,17,17.40
2017,07,05,10,18,17.30
2017,07,05,10,19,17.30
2017,07,05,10,20,17.30
2017,07,05,10,21,17.40
2017,07,05,10,22,17.40
2017,07,05,10,23,17.40
2017,07,05,10,24,17.50
2017,07,05,10,25,17.50
2017,07,05,10,26,17.60
2017,07,05,10,27,17.60
2017,07,05,10,28,17.60
2017,07,05,10,29,17.70
2017,07,05,10,30,17.70
2017,07,05,10,31,17.80
2017,07,05,10,32,17.90
2017,07,05,10,33,17.90
2017,07,05,10,34,17.90
2017,07,05,10,35,17.90
2017,07,05,10,36,18.00
2017,07,05,10,37,17.90
2017,07,05,10,38,17.90
2017,07,05,10,39,17.90
2017,07,05,10,40,17.90
2017,07,05,10,41,17.90
2017,07,05,10,42,17.90
2017,07,05,10,43,18.00
2017,07,05,10,44,18.00
2017,07,05,10,45,17.90
2017,07,05,10,46,18.00
2017,07,05,10,47,18.00
2017,07,05,10,48,18.10
2017,07,05,10,49,18.10
2017,07,05,10,50,18.10
2017,07,05,10,51,18.20
2017,07,05,10,52,18.20
2017,07,05,10,53,18.20
2017,07,05,10,54,18.20
2017,07,05,10,55,18.10
2017,07,05,10,56,18.10
2017,07,05,10,57,18.10
2017,07,05,10,58,18.20
2017,07,05,10,59,18.20
2017,07,05,11,00,18.10
2017,07,05,11,01,18.10
2017,07,05,11,02,18.10
2017,07,05,11,03,18.10
2017,07,05,11,04,18.10
2017,07,05,11,05,18.00
2017,07,05,11,06,18.00
2017,07,05,11,07,17.90
2017,07,05,11,08,17.90
2017,07,05,11,09,17.90
2017,07,05,11,10,18.00
2017,07,05,11,11,18.00
2017,07,05,11,12,18.10
2017,07,05,11,13,18.20
2017,07,05,11,14,18.20
2017,07,05,11,15,18.10
2017,07,05,11,16,18.10
2017,07,05,11,17,18.10
2017,07,05,11,18,18.20
2017,07,05,11,19,18.20
2017,07,05,11,20,18.30
2017,07,05,11,21,18.30
2017,07,05,11,22,18.30
2017,07,05,11,23,18.40
2017,07,05,11,24,18.50
2017,07,05,11,25,18.50
2017,07,05,11,26,18.60
2017,07,05,11,27,18.60
2017,07,05,11,28,18.50
2017,07,05,11,29,18.60
2017,07,05,11,30,18.60
2017,07,05,11,31,18.60
2017,07,05,11,32,18.60
2017,07,05,11,33,18.60
2017,07,05,11,34,18.50
2017,07,05,11,35,18.50
2017,07,05,11,36,18.50
2017,07,05,11,37,18.60
2017,07,05,11,38,18.60
2017,07,05,11,39,18.60
2017,07,05,11,40,18.50
2017,07,05,11,41,18.50
2017,07,05,11,42,18.40
2017,07,05,11,43,18.40
2017,07,05,11,44,18.30
2017,07,05,11,45,18.30
2017,07,05,11,46,18.30
2017,07,05,11,47,18.30
2017,07,05,11,48,18.40
2017,07,05,11,49,18.40
2017,07,05,11,50,18.40
2017,07,05,11,51,18.40
2017,07,05,11,52,18.40
2017,07,05,11,53,18.40
2017,07,05,11,54,18.40
2017,07,05,11,55,18.40
2017,07,05,11,56,18.40
2017,07,05,11,57,18.40
2017,07,05,11,58,18.40
2017,07,05,11,59,18.40
2017,07,05,12,00,18.40
2017,07,05,12,01,18.40
2017,07,05,12,02,18.30
2017,07,05,12,03,18.30
2017,07,05,12,04,18.30
2017,07,05,12,05,18.30
2017,07,05,12,06,18.30
2017,07,05,12,07,18.30
2017,07,05,12,08,18.40
2017,07,05,12,09,18.50
2017,07,05,12,10,18.50
2017,07,05,12,11,18.60
2017,07,05,12,12,18.50
2017,07,05,12,13,18.40
2017,07,05,12,14,18.40
2017,07,05,12,15,18.40
2017,07,05,12,16,18.50
2017,07,05,12,17,18.60
2017,07,05,12,18,18.60
2017,07,05,12,19,18.70
2017,07,05,12,20,18.70
2017,07,05,12,21,18.70
2017,07,05,12,22,18.80
2017,07,05,12,23,18.80
2017,07,05,12,24,18.90
2017,07,05,12,25,18.90
2017,07,05,12,26,18.90
2017,07,05,12,27,19.00
2017,07,05,12,28,19.00
2017,07,05,12,29,19.10
2017,07,05,12,30,19.20
2017,07,05,12,31,19.20
2017,07,05,12,32,19.20
2017,07,05,12,33,19.20
2017,07,05,12,34,19.20
2017,07,05,12,35,19.20
2017,07,05,12,36,19.20
2017,07,05,12,37,19.20
2017,07,05,12,38,19.20
2017,07,05,12,39,19.20
2017,07,05,12,40,19.20
2017,07,05,12,41,19.20
2017,07,05,12,42,19.30
2017,07,05,12,43,19.30
2017,07,05,12,44,19.30
2017,07,05,12,45,19.30
2017,07,05,12,46,19.30
2017,07,05,12,47,19.40
2017,07,05,12,48,19.50
2017,07,05,12,49,19.60
2017,07,05,12,50,19.70
2017,07,05,12,51,19.80
2017,07,05,12,52,19.80
2017,07,05,12,53,19.80
2017,07,05,12,54,19.80
2017,07,05,12,55,19.80
2017,07,05,12,56,19.80
2017,07,05,12,57,19.80
2017,07,05,12,58,19.90
2017,07,05,12,59,19.90
2017,07,05,13,00,20.00
2017,07,05,13,01,20.10
2017,07,05,13,02,20.10
2017,07,05,13,03,20.10
2017,07,05,13,04,20.20
2017,07,05,13,05,20.10
2017,07,05,13,06,20.10
2017,07,05,13,07,20.10
2017,07,05,13,08,20.20
2017,07,05,13,09,20.20
2017,07,05,13,10,20.20
2017,07,05,13,11,20.20
2017,07,05,13,12,20.20
2017,07,05,13,13,20.20
2017,07,05,13,14,20.30
2017,07,05,13,15,20.40
2017,07,05,13,16,20.40
2017,07,05,13,17,20.40
2017,07,05,13,18,20.40
2017,07,05,13,19,20.40
2017,07,05,13,20,20.40
2017,07,05,13,21,20.40
2017,07,05,13,22,20.40
2017,07,05,13,23,20.40
2017,07,05,13,24,20.40
2017,07,05,13,25,20.40
2017,07,05,13,26,20.40
2017,07,05,13,27,20.40
2017,07,05,13,28,20.40
2017,07,05,13,29,20.50
2017,07,05,13,30,20.50
2017,07,05,13,31,20.60
2017,07,05,13,32,20.60
2017,07,05,13,33,20.70
2017,07,05,13,34,20.70
2017,07,05,13,35,20.80
2017,07,05,13,36,20.80
2017,07,05,13,37,20.80
2017,07,05,13,38,20.70
2017,07,05,13,39,20.70
2017,07,05,13,40,20.80
2017,07,05,13,41,20.80
2017,07,05,13,42,20.90
2017,07,05,13,43,20.90
2017,07,05,13,44,20.90
2017,07,05,13,45,21.00
2017,07,05,13,46,21.10
2017,07,05,13,47,21.20
2017,07,05,13,48,21.20
2017,07,05,13,49,21.20
2017,07,05,13,50,21.20
2017,07,05,13,51,21.30
2017,07,05,13,52,21.40
2017,07,05,13,53,21.40
2017,07,05,13,54,21.40
2017,07,05,13,55,21.50
2017,07,05,13,56,21.50
2017,07,05,13,57,21.60
2017,07,05,13,58,21.60
2017,07,05,13,59,21.70
2017,07,05,14,00,21.70
2017,07,05,14,01,21.70
2017,07,05,14,02,21.70
2017,07,05,14,03,21.70
2017,07,05,14,04,21.70
2017,07,05,14,05,21.80
2017,07,05,14,06,21.80
2017,07,05,14,07,21.80
2017,07,05,14,08,21.90
2017,07,05,14,09,21.90
2017,07,05,14,10,21.80
2017,07,05,14,11,21.80
2017,07,05,14,12,21.80
2017,07,05,14,13,21.80
2017,07,05,14,14,21.80
2017,07,05,14,15,21.90
2017,07,05,14,16,21.90
2017,07,05,14,17,22.00
2017,07,05,14,18,22.10
2017,07,05,14,19,22.10
2017,07,05,14,20,22.10
2017,07,05,14,21,22.10
2017,07,05,14,22,22.10
2017,07,05,14,23,22.20
2017,07,05,14,24,22.20
2017,07,05,14,25,22.20
2017,07,05,14,26,22.20
2017,07,05,14,27,22.10
2017,07,05,14,28,22.10
2017,07,05,14,29,22.00
2017,07,05,14,30,22.00
2017,07,05,14,31,21.90
2017,07,05,14,32,21.90
2017,07,05,14,33,22.00
2017,07,05,14,34,22.00
2017,07,05,14,35,22.10
2017,07,05,14,36,22.10
2017,07,05,14,37,22.10
2017,07,05,14,38,22.20
2017,07,05,14,39,22.10
2017,07,05,14,40,22.10
2017,07,05,14,41,22.20
2017,07,05,14,42,22.20
2017,07,05,14,43,22.20
2017,07,05,14,44,22.20
2017,07,05,14,45,22.20
2017,07,05,14,46,22.10
2017,07,05,14,47,22.10
2017,07,05,14,48,22.00
2017,07,05,14,49,22.00
2017,07,05,14,50,22.00
2017,07,05,14,51,22.10
2017,07,05,14,52,22.20
2017,07,05,14,53,22.30
2017,07,05,14,54,22.30
2017,07,05,14,55,22.30
2017,07,05,14,56,22.20
2017,07,05,14,57,22.10
2017,07,05,14,58,22.10
2017,07,05,14,59,22.10
2017,07,05,15,00,22.10
2017,07,05,15,01,22.10
2017,07,05,15,02,22.20
2017,07,05,15,03,22.30
2017,07,05,15,04,22.40
2017,07,05,15,05,22.40
2017,07,05,15,06,22.60
2017,07,05,15,07,22.70
2017,07,05,15,08,22.80
2017,07,05,15,09,22.90
2017,07,05,15,10,23.00
2017,07,05,15,11,23.00
2017,07,05,15,12,23.00
2017,07,05,15,13,23.00
2017,07,05,15,14,23.00
2017,07,05,15,15,23.00
2017,07,05,15,16,23.00
2017,07,05,15,17,23.00
2017,07,05,15,18,22.90
2017,07,05,15,19,22.90
2017,07,05,15,20,22.80
2017,07,05,15,21,22.70
2017,07,05,15,22,22.70
2017,07,05,15,23,22.70
2017,07,05,15,24,22.70
2017,07,05,15,25,22.70
2017,07,05,15,26,22.80
2017,07,05,15,27,22.80
2017,07,05,15,28,22.90
2017,07,05,15,29,22.90
2017,07,05,15,30,22.90
2017,07,05,15,31,22.90
2017,07,05,15,32,22.80
2017,07,05,15,33,22.80
2017,07,05,15,34,22.90
2017,07,05,15,35,22.90
2017,07,05,15,36,22.90
2017,07,05,15,37,23.00
2017,07,05,15,38,23.00
2017,07,05,15,39,23.00
2017,07,05,15,40,23.00
2017,07,05,15,41,23.00
2017,07,05,15,42,23.00
2017,07,05,15,43,23.10
2017,07,05,15,44,23.20
2017,07,05,15,45,23.30
2017,07,05,15,46,23.30
2017,07,05,15,47,23.30
2017,07,05,15,48,23.30
2017,07,05,15,49,23.30
2017,07,05,15,50,23.30
2017,07,05,15,51,23.30
2017,07,05,15,52,23.30
2017,07,05,15,53,23.30
2017,07,05,15,54,23.40
2017,07,05,15,55,23.40
2017,07,05,15,56,23.40
2017,07,05,15,57,23.50
2017,07,05,15,58,23.50
2017,07,05,15,59,23.40
2017,07,05,16,00,23.40
2017,07,05,16,01,23.40
2017,07,05,16,02,23.30
2017,07,05,16,03,23.30
2017,07,05,16,04,23.30
2017,07,05,16,05,23.30
2017,07,05,16,06,23.30
2017,07,05,16,07,23.40
2017,07,05,16,08,23.40
2017,07,05,16,09,23.40
2017,07,05,16,10,23.40
2017,07,05,16,11,23.30
2017,07,05,16,12,23.30
2017,07,05,16,13,23.30
2017,07,05,16,14,23.20
2017,07,05,16,15,23.20
2017,07,05,16,16,23.20
2017,07,05,16,17,23.20
2017,07,05,16,18,23.10
2017,07,05,16,19,23.00
2017,07,05,16,20,23.00
2017,07,05,16,21,23.00
2017,07,05,16,22,23.00
2017,07,05,16,23,23.00
2017,07,05,16,24,23.00
2017,07,05,16,25,23.00
2017,07,05,16,26,23.00
2017,07,05,16,27,23.00
2017,07,05,16,28,23.00
2017,07,05,16,29,23.00
2017,07,05,16,30,23.00
2017,07,05,16,31,23.10
2017,07,05,16,32,23.10
2017,07,05,16,33,23.10
2017,07,05,16,34,23.10
2017,07,05,16,35,23.10
2017,07,05,16,36,23.20
2017,07,05,16,37,23.20
2017,07,05,16,38,23.20
2017,07,05,16,39,23.20
2017,07,05,16,40,23.30
2017,07,05,16,41,23.30
2017,07,05,16,42,23.30
2017,07,05,16,43,23.30
2017,07,05,16,44,23.30
2017,07,05,16,45,23.30
2017,07,05,16,46,23.30
2017,07,05,16,47,23.30
2017,07,05,16,48,23.30
2017,07,05,16,49,23.30
2017,07,05,16,50,23.40
2017,07,05,16,51,23.40
2017,07,05,16,52,23.40
2017,07,05,16,53,23.40
2017,07,05,16,54,23.30
2017,07,05,16,55,23.20
2017,07,05,16,56,23.10
2017,07,05,16,57,23.10
2017,07,05,16,58,23.10
2017,07,05,16,59,23.00
2017,07,05,17,00,23.00
2017,07,05,17,01,23.00
2017,07,05,17,02,23.00
2017,07,05,17,03,23.10
2017,07,05,17,04,23.10
2017,07,05,17,05,23.10
2017,07,05,17,06,23.10
2017,07,05,17,07,23.10
2017,07,05,17,08,23.20
2017,07,05,17,09,23.20
2017,07,05,17,10,23.20
2017,07,05,17,11,23.30
2017,07,05,17,12,23.40
2017,07,05,17,13,23.40
2017,07,05,17,14,23.50
2017,07,05,17,15,23.60
2017,07,05,17,16,23.70
2017,07,05,17,17,23.70
2017,07,05,17,18,23.80
2017,07,05,17,19,23.90